Weather History for Statesville, NC

Change the Weather History Date:

Thursday, April 24, 2014

  Actual Average (KHKY) Record (KHKY)
Temperature  
Mean Temperature 54 °F -  
Max Temperature 70 °F 73 °F 91 °F (1960)
Min Temperature 39 °F 49 °F 33 °F (1986)
Degree Days  
Heating Degree Days 10    
Growing Degree Days 4 (Base 50)    
Moisture  
Dew Point 36 °F    
Average Humidity 46    
Maximum Humidity 77    
Minimum Humidity 29    
Precipitation  
Precipitation 0.00 in - - ()
Sea Level Pressure  
Sea Level Pressure 30.04 in    
Wind  
Wind Speed 3 mph (ESE)    
Max Wind Speed 8 mph    
Max Gust Speed -    
Visibility 10 miles    
Events      
Averages and records for this station are not official NWS values.
T = Trace of Precipitation, MM = Missing Value Source: NWS Daily Summary

Daily Weather History Graph

Daily Weather History Graph

Search for Another Location

Airport:

Trip Planner

Search our weather history database for the weather conditions in past years. The results will help you decide how hot, cold, wet, or windy it might be!

Date:

Astronomy

Apr. 24, 2014 Rise Set
Actual Time 6:39 AM EDT 8:04 PM EDT
Civil Twilight 6:12 AM EDT 8:31 PM EDT
Nautical Twilight 5:40 AM EDT 9:03 PM EDT
Astronomical Twilight 5:07 AM EDT 9:37 PM EDT
Moon 3:39 AM EDT (4/24) 3:28 PM EDT (4/24)
Length of Visible Light 14h 18m
Length of Day
13h 25m
Waning Crescent, 24% of the Moon is Illuminated
Apr 24
Waning Crescent
Apr 29
New
May 6
First Quarter
May 14
Full
May 21
Last Quarter

Hourly Weather History & Observations

Time (EDT) Temp. Windchill Dew Point Humidity Pressure Visibility Wind Dir Wind Speed Gust Speed Precip Events Conditions
12:15 AM 52.9 °F - 29.1 °F 40% 30.00 in 10.0 mi ENE 3.5 mph - N/A   Clear
12:35 AM 51.6 °F - 30.0 °F 44% 30.00 in 10.0 mi NNE 3.5 mph - N/A   Clear
12:55 AM 52.3 °F - 29.8 °F 42% 30.01 in 10.0 mi NNE 3.5 mph - N/A   Clear
1:15 AM 51.8 °F - 29.7 °F 43% 30.01 in 10.0 mi Calm Calm - N/A   Clear
1:35 AM 52.3 °F - 29.1 °F 41% 30.01 in 10.0 mi NNE 4.6 mph - N/A   Clear
1:55 AM 51.3 °F - 29.1 °F 43% 30.01 in 10.0 mi NE 3.5 mph - N/A   Clear
2:15 AM 50.0 °F - 30.0 °F 46% 30.01 in 10.0 mi NE 4.6 mph - N/A   Clear
2:35 AM 49.5 °F - 30.0 °F 47% 30.01 in 10.0 mi NNE 4.6 mph - N/A   Clear
2:55 AM 48.6 °F - 31.1 °F 51% 30.00 in 10.0 mi NE 6.9 mph - N/A   Clear
3:15 AM 50.4 °F - 30.2 °F 46% 30.00 in 10.0 mi NNE 5.8 mph - N/A   Clear
3:35 AM 50.0 °F - 30.2 °F 47% 30.00 in 10.0 mi ENE 5.8 mph - N/A   Clear
3:55 AM 47.3 °F - 31.3 °F 54% 30.01 in 10.0 mi Calm Calm - N/A   Clear
4:15 AM 50.4 °F - 29.7 °F 45% 30.02 in 10.0 mi NE 4.6 mph - N/A   Clear
4:35 AM 49.1 °F - 30.4 °F 49% 30.02 in 10.0 mi NE 5.8 mph - N/A   Clear
4:55 AM 45.9 °F - 30.9 °F 56% 30.04 in 10.0 mi Calm Calm - N/A   Clear
5:15 AM 45.1 °F - 30.2 °F 56% 30.04 in 10.0 mi Calm Calm - N/A   Clear
5:35 AM 45.7 °F - 30.2 °F 55% 30.05 in 10.0 mi Calm Calm - N/A   Clear
5:55 AM 45.1 °F - 30.9 °F 58% 30.06 in 10.0 mi Calm Calm - N/A   Clear
6:15 AM 42.6 °F - 32.2 °F 67% 30.06 in 10.0 mi Calm Calm - N/A   Clear
6:35 AM 40.8 °F 38.8 °F 33.3 °F 74% 30.07 in 10.0 mi NE 3.5 mph - N/A   Clear
6:55 AM 40.3 °F - 32.4 °F 73% 30.08 in 10.0 mi Calm Calm - N/A   Clear
7:15 AM 39.9 °F - 33.3 °F 77% 30.09 in 10.0 mi Calm Calm - N/A   Clear
7:35 AM 42.1 °F - 35.2 °F 77% 30.11 in 10.0 mi Calm Calm - N/A   Clear
7:55 AM 45.0 °F - 35.4 °F 69% 30.11 in 10.0 mi Calm Calm - N/A   Clear
8:15 AM 49.1 °F - 34.7 °F 58% 30.12 in 10.0 mi Calm Calm - N/A   Clear
8:35 AM 50.9 °F - 34.3 °F 53% 30.12 in 10.0 mi Calm Calm - N/A   Clear
8:55 AM 52.7 °F - 34.9 °F 51% 30.12 in 10.0 mi Calm Calm - N/A   Clear
9:15 AM 54.3 °F - 34.2 °F 47% 30.13 in 10.0 mi SE 6.9 mph - N/A   Clear
9:35 AM 55.2 °F - 34.2 °F 45% 30.13 in 10.0 mi SE 5.8 mph - N/A   Clear
9:55 AM 56.5 °F - 33.6 °F 42% 30.14 in 10.0 mi ESE 4.6 mph - N/A   Clear
10:15 AM 57.0 °F - 33.8 °F 42% 30.14 in 10.0 mi Calm Calm - N/A   Clear
10:35 AM 57.6 °F - 34.0 °F 41% 30.14 in 10.0 mi Calm Calm - N/A   Clear
10:55 AM 59.0 °F - 36.1 °F 42% 30.14 in 10.0 mi East 4.6 mph - N/A   Clear
11:15 AM 59.5 °F - 35.2 °F 40% 30.14 in 10.0 mi ENE 6.9 mph - N/A   Clear
11:35 AM 59.9 °F - 35.8 °F 41% 30.14 in 10.0 mi Calm Calm - N/A   Clear
11:55 AM 61.0 °F - 35.4 °F 38% 30.13 in 10.0 mi East 3.5 mph - N/A   Clear
12:15 PM 61.5 °F - 35.8 °F 38% 30.11 in 10.0 mi ENE 4.6 mph - N/A   Clear
12:35 PM 61.5 °F - 34.5 °F 36% 30.10 in 10.0 mi Calm Calm - N/A   Clear
12:55 PM 62.8 °F - 35.2 °F 36% 30.09 in 10.0 mi Calm Calm - N/A   Clear
1:15 PM 64.0 °F - 36.7 °F 36% 30.08 in 10.0 mi Calm Calm - N/A   Clear
1:35 PM 65.1 °F - 36.9 °F 35% 30.07 in 10.0 mi WSW 4.6 mph - N/A   Clear
1:55 PM 65.8 °F - 34.5 °F 31% 30.05 in 10.0 mi SW 8.1 mph - N/A   Clear
2:15 PM 66.7 °F - 36.3 °F 33% 30.04 in 10.0 mi SW 8.1 mph - N/A   Clear
2:35 PM 67.6 °F - 37.8 °F 33% 30.04 in 10.0 mi Calm Calm - N/A   Clear
2:55 PM 67.3 °F - 33.8 °F 29% 30.03 in 10.0 mi WSW 3.5 mph - N/A   Clear
3:15 PM 68.2 °F - 37.2 °F 32% 30.02 in 10.0 mi SSW 6.9 mph - N/A   Clear
3:35 PM 68.9 °F - 38.8 °F 33% 30.01 in 10.0 mi SW 6.9 mph - N/A   Clear
3:55 PM 68.5 °F - 37.2 °F 32% 30.00 in 10.0 mi SW 5.8 mph - N/A   Clear
4:15 PM 69.8 °F - 38.8 °F 32% 29.99 in 10.0 mi South 5.8 mph - N/A   Clear
4:35 PM 70.5 °F - 39.4 °F 32% 29.99 in 10.0 mi South 8.1 mph - N/A   Clear
4:55 PM 70.2 °F - 37.2 °F 30% 29.98 in 10.0 mi South 8.1 mph - N/A   Clear
5:15 PM 70.3 °F - 37.8 °F 30% 29.99 in 10.0 mi SSE 6.9 mph - N/A   Clear
5:35 PM 70.7 °F - 38.1 °F 30% 29.98 in 10.0 mi Calm Calm - N/A   Clear
5:55 PM 70.7 °F - 37.8 °F 30% 29.99 in 10.0 mi SSE 5.8 mph - N/A   Clear
6:15 PM 70.2 °F - 37.4 °F 30% 29.98 in 10.0 mi SSW 5.8 mph - N/A   Clear
6:35 PM 70.0 °F - 38.5 °F 32% 29.98 in 10.0 mi Calm Calm - N/A   Clear
6:55 PM 69.1 °F - 39.9 °F 35% 29.98 in 10.0 mi Calm Calm - N/A   Clear
7:15 PM 68.0 °F - 40.1 °F 36% 29.98 in 10.0 mi SSE 3.5 mph - N/A   Clear
7:55 PM 66.4 °F - 40.8 °F 39% 29.98 in 10.0 mi Calm Calm - N/A   Clear
8:15 PM 64.6 °F - 40.8 °F 42% 29.98 in 10.0 mi Calm Calm - N/A   Clear
8:35 PM 63.5 °F - 41.4 °F 44% 29.97 in 10.0 mi Calm Calm - N/A   Clear
8:55 PM 62.6 °F - 41.7 °F 46% 29.97 in 10.0 mi Calm Calm - N/A   Clear
9:15 PM 61.5 °F - 42.1 °F 49% 29.97 in 10.0 mi Calm Calm - N/A   Clear
9:35 PM 57.2 °F - 43.0 °F 59% 29.97 in 10.0 mi Calm Calm - N/A   Clear
9:55 PM 57.9 °F - 43.2 °F 58% 29.97 in 10.0 mi Calm Calm - N/A   Clear
10:15 PM 57.7 °F - 43.3 °F 59% 29.98 in 10.0 mi Calm Calm - N/A   Clear
10:35 PM 54.7 °F - 43.3 °F 66% 29.98 in 10.0 mi Calm Calm - N/A   Clear
10:55 PM 56.1 °F - 42.8 °F 61% 29.98 in 10.0 mi Calm Calm - N/A   Clear
11:15 PM 58.1 °F - 42.3 °F 56% 29.98 in 10.0 mi Calm Calm - N/A   Clear
11:35 PM 57.0 °F - 42.6 °F 59% 29.97 in 10.0 mi Calm Calm - N/A   Clear
11:55 PM 57.2 °F - 42.3 °F 57% 29.96 in 10.0 mi Calm Calm - N/A   Clear